Wetbulb
59.17 59.37 59.06 58.78 58.86 58.96 58.78 58.91 59.69 59.75 59.61 59.55 60.10 59.89 59.00 58.12 57.98 57.40 57.24 57.16 56.88 56.76
59.58 59.74 59.20 58.85 59.16 59.32 58.85 59.68 59.54 59.75 59.29 59.51 59.46 59.33 58.52 57.74 57.70 58.16 57.96 58.20 57.84 57.14
59.41 59.64 59.77 59.99 59.45 59.40 59.61 60.02 59.72 59.09 59.19 58.99 59.41 59.34 58.23 57.77 58.25 58.58 58.24 58.84 58.14 56.98
59.32 59.82 59.84 59.96 59.84 59.87 59.76 59.64 59.59 59.86 59.36 59.45 59.44 59.00 58.31 57.91 59.00 58.37 57.85 57.69 58.09 57.63
59.07 58.80 59.10 59.91 60.00 58.89 59.09 59.33 60.04 60.18 59.81 59.98 59.82 59.13 58.52 58.80 58.81 58.38 58.12 58.18 57.47 58.62
58.57 58.80 59.27 59.60 59.52 58.93 58.91 59.26 60.25 60.25 59.90 59.84 59.99 59.64 59.55 59.94 59.26 59.26 60.05 59.17 58.71 58.69
58.45 59.12 59.24 59.58 59.80 59.63 59.77 59.55 59.51 59.20 60.48 60.51 60.23 60.39 60.45 59.73 58.76 59.71 60.06 60.56 59.85 60.16
58.74 59.42 59.42 59.46 59.60 59.92 59.78 60.46 61.07 61.28 61.09 59.60 59.80 59.79 59.76 58.78 58.65 59.19 60.06 60.41 60.84 60.41
59.33 59.60 59.02 59.40 59.28 58.74 58.92 60.72 60.20 59.98 58.09 57.01 57.38 48.90 52.79 57.43 59.04 58.48 59.26 59.09 59.45 59.61
59.93 59.72 59.04 59.49 58.77 57.76 57.63 58.07 56.96 56.74 56.30 55.24 54.67 46.18 47.63 51.44 58.78 58.04 59.25 58.69 59.97 59.95
60.14 59.49 59.35 59.09 57.69 56.74 56.20 57.48 55.47 55.16 54.84 54.06 53.96 46.36 47.27 50.53 58.16 58.04 58.74 59.65 59.79 58.24
60.25 59.66 59.31 58.36 56.98 56.28 55.78 56.28 55.11 54.69 53.96 53.92 53.47 45.64 47.09 55.21 60.01 59.95 60.15 60.37 59.40 58.88
60.11 60.15 59.07 57.98 57.10 56.56 57.04 58.86 57.00 55.60 53.84 51.41 54.39 45.64 47.81 56.19 59.52 58.35 58.02 58.35 57.06 51.40
60.00 59.71 59.03 57.92 57.28 57.14 58.89 59.39 57.46 55.68 53.35 54.33 54.54 52.86 46.00 49.81 56.74 58.14 57.78 57.12 56.48 54.25
MSLP
1002.47 1002.79 1003.33 1003.81 1004.25 1004.62 1004.89 1005.14 1005.35 1005.60 1005.92 1006.12 1006.33 1006.61 1006.87 1007.13 1007.32 1007.53 1007.82 1008.07 1008.21 1008.41
1002.80 1003.09 1003.51 1003.96 1004.23 1004.55 1004.83 1005.05 1005.26 1005.52 1005.80 1006.02 1006.29 1006.54 1006.80 1007.04 1007.22 1007.40 1007.52 1007.66 1007.80 1008.06
1002.95 1003.19 1003.57 1003.97 1004.38 1004.54 1004.71 1004.95 1005.23 1005.58 1005.86 1006.05 1006.28 1006.51 1006.72 1006.91 1007.00 1007.16 1007.24 1007.31 1007.48 1007.66
1003.12 1003.34 1003.62 1003.95 1004.20 1004.41 1004.73 1005.03 1005.33 1005.67 1005.88 1006.06 1006.20 1006.50 1006.69 1006.82 1006.91 1007.08 1007.19 1007.22 1007.33 1007.46
1003.23 1003.53 1003.77 1004.00 1004.13 1004.37 1004.77 1005.05 1005.36 1005.64 1005.91 1006.15 1006.16 1006.42 1006.68 1006.83 1006.83 1007.01 1007.07 1007.22 1007.28 1007.30
1003.40 1003.62 1003.84 1004.04 1004.17 1004.45 1004.86 1005.13 1005.42 1005.66 1005.97 1006.07 1006.27 1006.36 1006.50 1006.61 1006.78 1006.92 1006.99 1007.17 1007.28 1007.32
1003.40 1003.56 1003.78 1003.98 1004.25 1004.53 1004.88 1005.12 1005.39 1005.58 1005.90 1006.09 1006.22 1006.38 1006.35 1006.50 1006.74 1006.79 1006.86 1007.09 1007.30 1007.44
1003.34 1003.61 1003.82 1004.11 1004.31 1004.61 1004.91 1004.96 1005.16 1005.57 1005.92 1006.29 1006.41 1006.46 1006.44 1006.68 1006.87 1007.02 1007.14 1007.26 1007.31 1007.54
1003.40 1003.70 1004.01 1004.32 1004.58 1004.78 1004.98 1005.03 1005.36 1005.88 1006.36 1006.69 1006.76 1006.68 1006.63 1006.72 1007.03 1007.17 1007.33 1007.55 1007.63 1007.79
1003.41 1003.82 1004.20 1004.48 1004.74 1004.98 1005.22 1005.51 1006.01 1006.38 1006.68 1007.05 1007.14 1007.06 1006.81 1006.87 1007.16 1007.43 1007.58 1007.80 1007.78 1007.96
1003.41 1003.84 1004.32 1004.74 1004.98 1005.27 1005.56 1005.92 1006.29 1006.64 1006.99 1007.27 1007.46 1007.28 1007.05 1007.17 1007.41 1007.65 1007.82 1007.98 1008.07 1008.24
1003.30 1003.87 1004.41 1004.93 1005.20 1005.47 1005.81 1006.21 1006.56 1006.93 1007.25 1007.47 1007.60 1007.41 1007.32 1007.47 1007.70 1007.85 1008.04 1008.24 1008.39 1008.51
1003.21 1003.83 1004.41 1004.91 1005.31 1005.49 1005.84 1006.21 1006.72 1007.16 1007.34 1007.64 1007.63 1007.50 1007.58 1007.67 1007.89 1008.13 1008.37 1008.69 1009.01 1009.16
1003.24 1003.79 1004.35 1004.97 1005.39 1005.66 1006.07 1006.46 1006.88 1007.29 1007.63 1007.81 1007.87 1007.91 1007.96 1008.02 1008.32 1008.46 1008.75 1009.13 1009.58 1009.93
Wind_Speed
8 5 5 5 4 4 3 3 4 4 4 4 4 4 4 3 3 4 4 5 5 4
6 7 6 6 4 3 3 3 5 5 4 4 4 4 4 3 4 4 4 5 5 4
7 6 6 5 6 5 4 4 5 4 4 4 3 4 4 3 3 5 4 4 5 4
6 6 6 5 5 6 5 6 5 5 4 3 4 3 3 3 4 4 4 3 5 4
6 6 5 5 5 5 5 4 5 4 3 3 4 3 4 4 4 5 5 5 4 3
6 6 6 6 5 5 6 5 4 4 4 4 3 3 3 5 5 4 4 4 3 3
7 6 6 6 5 5 5 6 5 5 4 3 3 3 3 4 3 3 3 4 4 4
6 6 5 5 5 5 4 4 5 5 5 4 4 2 3 4 4 4 4 4 5 5
6 6 5 5 5 5 4 5 7 6 6 6 2 4 3 5 5 4 4 4 5 4
7 6 6 5 6 6 6 6 7 6 6 5 2 5 3 6 4 4 4 4 4 3
6 6 6 5 6 5 4 5 5 5 5 5 1 3 7 8 5 5 4 4 4 5
7 7 6 6 6 5 5 4 4 4 5 4 2 4 8 7 4 4 5 4 5 5
7 7 7 6 6 4 4 4 4 4 4 3 2 3 6 6 3 4 4 5 5 9
7 7 7 6 3 5 5 5 5 5 3 3 3 4 3 7 4 3 4 4 4 3
Wind_Direction
128 124 128 140 141 154 169 172 160 166 163 181 187 190 189 186 189 185 199 207 206 199
123 127 141 146 140 156 152 160 156 146 155 182 179 178 173 186 191 186 193 215 214 204
141 134 141 145 149 157 143 134 137 141 168 173 179 180 174 184 203 193 205 207 201 201
141 137 149 147 153 149 140 143 147 171 172 178 158 172 183 209 179 164 157 155 172 199
134 145 153 150 151 146 146 150 166 168 150 213 187 170 200 191 171 164 169 171 153 98
151 156 159 151 142 141 147 153 155 146 167 187 167 189 183 185 179 184 193 189 185 149
171 161 160 141 148 145 161 160 164 169 173 169 158 163 154 134 156 180 181 177 151 122
158 150 141 135 139 142 164 177 156 130 124 130 129 127 139 123 125 114 93 93 109 117
145 139 141 135 132 129 128 118 112 115 123 113 89 8 92 146 135 129 103 101 99 118
149 143 145 136 131 127 128 110 107 115 117 114 101 3 105 138 119 124 126 124 126 113
153 141 138 135 128 121 115 116 121 130 128 126 103 6 122 118 112 112 117 121 116 112
152 142 145 145 148 130 126 116 131 127 144 141 112 40 132 119 118 101 100 95 102 105
147 147 152 145 149 131 133 129 121 128 136 111 124 27 146 116 116 103 87 77 79 105
145 148 144 140 133 129 122 114 118 124 122 103 31 57 93 105 96 110 101 95 100 96